This demonstration page uses our WeatherBlox Daily Observations layout. Learn more.

39.08367, -84.50855

Hourly Observations for July 5, 2019

Temp ( °F °C ) Dew Point ( °F °C ) Humidity (%) Winds ( mph kmh ) Pressure ( in mb ) Visibility ( mi km ) Precip ( " mm )
12:14 am 00:14 Partly Cloudy with Mist and Fog 72 22.2 72 22.2 100 100 Calm 30 1016 2.5 4.02336 0.001 0.001
12:53 am 00:53 Clear with Mist and Fog 72 22.2 71 21.7 97 97 Calm 30.03 1017 2 3.218688 0.001 0.001
1:02 am 01:02 Clear with Mist and Fog 71 21.7 71 21.7 100 100 Calm 30 1016 1.75 2.816352 0 0
1:23 am 01:23 Clear with Mist and Fog 73 22.8 72 22.2 96 96 Calm 30.03 1017 2 3.218688 0 0
1:30 am 01:30 Clear with Mist and Fog 73 22.8 72 22.2 96 96 Calm 30.03 1017 1.5 2.414016 0 0
1:53 am 01:53 Clear with Mist and Fog 72 22.2 71 21.7 97 97 Calm 30.03 1017 2 3.218688 0 0
2:09 am 02:09 Clear with Mist and Fog 72 22.2 71 21.7 97 97 Calm 30.03 1017 1.75 2.816352 0 0
2:42 am 02:42 Mostly Cloudy with Mist and Fog 71 21.7 71 21.7 100 100 Calm 30 1016 0.75 1.207008 0 0
2:53 am 02:53 Clear with Mist and Fog 71 21.7 71 21.7 100 100 Calm 30 1016 1.25 2.01168 0 0
3:53 am 03:53 Clear with Fog 70 21.1 70 21.1 100 100 S 3 6 30 1016 0.5 0.804672 0 0
4:07 am 04:07 Clear with Mist and Fog 71 21.7 70 21.1 96 96 Calm 30 1016 2 3.218688 0 0
4:31 am 04:31 Clear with Mist and Fog 71 21.7 70 21.1 96 96 NE 3 6 30 1016 1.25 2.01168 0 0
4:49 am 04:49 Mostly Cloudy with Fog 72 22 72 22 100 100 Calm 30 1016 0.5 0.804672 0 0
4:53 am 04:53 Mostly Cloudy with Fog 70 21.1 70 21.1 100 100 Calm 30 1016 0.25 0.402336 0 0
5:02 am 05:02 Mostly Cloudy with Fog 70 21.1 70 21.1 100 100 Calm 30 1016 0.5 0.804672 0 0
5:10 am 05:10 Partly Cloudy with Mist and Fog 70 21.1 70 21.1 100 100 Calm 30 1016 1.25 2.01168 0 0
5:19 am 05:19 Mostly Clear with Mist and Fog 71 21.7 70 21.1 96 96 Calm 30.03 1017 2 3.218688 0 0
5:26 am 05:26 Mostly Clear with Mist and Fog 71 21.7 71 21.7 100 100 Calm 30.03 1017 1.25 2.01168 0 0
5:34 am 05:34 Mostly Cloudy with Mist and Fog 71 21.7 70 21.1 96 96 Calm 30.03 1017 0.75 1.207008 0 0
5:43 am 05:43 Mostly Clear with Mist and Fog 71 21.7 70 21.1 96 96 Calm 30.03 1017 1.5 2.414016 0.001 0.001
5:51 am 05:51 Mostly Clear with Mist and Fog 70 21 70 21 100 100 Calm 30.03 1017 2 3.218688 0.001 0.001
5:53 am 05:53 Mostly Clear with Mist and Fog 70 21.1 70 21.1 100 100 Calm 30.03 1017 2 3.218688 0.001 0.001
6:00 am 06:00 Clear with Mist and Fog 70 21.1 70 21.1 100 100 Calm 30.03 1017 1.5 2.414016 0 0
6:16 am 06:16 Clear with Mist and Fog 70 21.1 69 20.6 97 97 Calm 30.03 1017 2.5 4.02336 0 0
6:26 am 06:26 Sunny with Mist and Fog 70 21.1 70 21.1 100 100 Calm 30.03 1017 1.5 2.414016 0 0
6:43 am 06:43 Partly Cloudy with Mist and Fog 71 21.7 70 21.1 96 96 Calm 30.03 1017 2.5 4.02336 0 0
6:53 am 06:53 Mostly Cloudy with Mist and Fog 71 21.7 71 21.7 100 100 Calm 30.03 1017 4 6.437376 0 0
7:53 am 07:53 Sunny with Mist and Fog 74 23.3 73 22.8 97 97 SSW 3 6 30.06 1018 4 6.437376 0 0
8:53 am 08:53 Sunny with Mist and Fog 77 25 73 22.8 88 88 S 5 7 30.06 1018 6 9.656064 0 0
9:53 am 09:53 Mostly Sunny 80 26.7 74 23.3 82 82 SSW 5 7 30.06 1018 9 14.484096 0 0
10:53 am 10:53 Sunny 83 28.3 75 23.9 77 77 VRB 5 7 30.06 1018 9 14.484096 0 0
11:53 am 11:53 Partly Cloudy 85 29.4 76 24.4 75 75 VRB 5 7 30.06 1018 10 16.09344 0 0
12:53 pm 12:53 Partly Cloudy 87 30.6 75 23.9 67 67 S 8 13 30.06 1018 10 16.09344 0 0
1:42 pm 13:42 Cloudy with Light Thunderstorms 79 26.1 74 23.3 85 85 SE 10 17 30.06 1018 4 6.437376 0.06 1.524
1:53 pm 13:53 Mostly Cloudy with Thunderstorms 79 26.1 74 23.3 85 85 ESE 9 15 30.06 1018 10 16.09344 0.06 1.524
2:21 pm 14:21 Mostly Cloudy 79 26.1 73 22.8 82 82 NE 5 7 30.03 1017 10 16.09344 0 0
2:53 pm 14:53 Mostly Sunny 79 26.1 74 23.3 85 85 ENE 6 9 30.03 1017 10 16.09344 0 0
3:53 pm 15:53 Mostly Cloudy 86 30 77 25 75 75 N 5 7 30 1016 10 16.09344 0 0
4:53 pm 16:53 Partly Cloudy 88 31.1 75 23.9 66 66 Calm 29.97 1015 10 16.09344 0 0
5:53 pm 17:53 Mostly Cloudy 87 30.6 73 22.8 63 63 SSW 8 13 29.97 1015 10 16.09344 0 0
6:53 pm 18:53 Sunny 85 29.4 72 22.2 65 65 SSW 10 17 29.97 1015 10 16.09344 0 0
7:53 pm 19:53 Mostly Cloudy 86 30 73 22.8 65 65 SSW 7 11 29.97 1015 10 16.09344 0 0
8:53 pm 20:53 Sunny 82 27.8 74 23.3 77 77 Calm 30 1016 10 16.09344 0 0
9:23 pm 21:23 Mostly Clear 78 25.6 75 23.9 90 90 Calm 30 1016 10 16.09344 0 0
9:53 pm 21:53 Clear 78 25.6 74 23.3 87 87 Calm 30 1016 10 16.09344 0 0
10:53 pm 22:53 Clear 76 24.4 73 22.8 91 91 Calm 30 1016 10 16.09344 0.001 0.001
11:53 pm 23:53 Clear 75 23.9 73 22.8 94 94 SSE 3 6 30 1016 10 16.09344 0 0

Powered by AerisWeather